Regional Weather Roundup
Issued by NWS Charleston, SC

Current Version | Previous Version | Graphics & Text | Print | Product List | Glossary On
Versions: 1 2 3 4 5 6 7 8 9 10 11 12 13 14 15 16 17 18 19 20 21 22 23 24 25 26 27 28 29 30 31 32 33 34 35 36 37 38 39 40 41 42 43 44 45 46 47 48 49 50
000 ASUS42 KCHS 260928 RWRCHS REGIONAL WEATHER ROUNDUP NATIONAL WEATHER SERVICE CHARLESTON SC 500 AM EDT MON SEP 26 2016 NOTE: "FAIR" INDICATES FEW OR NO CLOUDS BELOW 12,000 FEET WITH NO SIGNIFICANT WEATHER AND/OR OBSTRUCTIONS TO VISIBILITY. NOT ALL STATIONS ARE QUALITY CONTROLLED. USE DATA WITH CAUTION... ESPECIALLY DEWPOINT OBSERVATIONS. SCZ027-030-031-034>040-042>050-261000- ...SOUTHEAST SOUTH CAROLINA... CITY SKY/WX TMP DP RH WIND PRES REMARKS N CHARLESTON CLOUDY 74 71 91 NE5 30.04S WATERFRONT PRK N/A 79 75 87 E8 30.02S MOUNT PLEASANT FAIR 77 73 88 CALM 30.04F JOHNS ISLAND FAIR 79 75 89 E9 30.04R PINOPOLIS N/A 73 73 100 NE8 29.98F MONCKS CORNER FAIR 70 70 100 CALM 30.05S FOG SUMMERVILLE FAIR 72 72 100 CALM 30.06S BEAUFORT MCAS CLOUDY 76 74 93 VRB3 30.03R BEAUFORT ARPT FAIR 75 72 88 E6 30.02S HILTON HEAD IS MOCLDY 79 75 89 VRB7G13 30.03R WALTERBORO CLOUDY 73 N/A N/A E6 30.05F ALLENDALE PTSUNNY 72 72 100 CALM 30.05R FOG ...SOUTHERN MIDLANDS AND PEE DEE... CITY SKY/WX TMP DP RH WIND PRES REMARKS GEORGETOWN FAIR 73 70 88 NE5 30.06S KINGSTREE FAIR 68 66 94 CALM 30.07S ORANGEBURG PTCLDY 72 71 97 CALM 30.06S BARNWELL NOT AVBL AIKEN FAIR 70 68 94 CALM 30.11R FOG MANNING CLOUDY 70 68 94 NE3 30.07R FOG COLUMBIA CLOUDY 74 71 91 E6 30.07R FOG SUMTER PTCLDY 71 69 95 NE5 30.06S FLORENCE MOCLDY 70 66 87 E7 30.09S MYRTLE BEACH CLEAR 72 61 68 NE8 30.09S N MYRTLE BEACH MOCLDY 69 66 90 NE6 30.07F $$ GAZ063-065-086>088-099>101-113>116-118-119-134>141-150-261000- ...SOUTHEAST GEORGIA... CITY SKY/WX TMP DP RH WIND PRES REMARKS SAVANNAH ARPT CLOUDY 74 71 91 N6 30.02S FOG HUNTER AAF CLOUDY 76 76 100 N3 29.99S FORT STEWART MOCLDY 73 71 94 N1 29.99R STATESBORO CLOUDY 73 73 99 CALM 30.04R FOG SYLVANIA NOT AVBL CLAXTON FAIR 71 71 100 CALM 30.03R FOG ...CSRA...CENTRAL AND FAR SOUTHEAST GEORGIA... CITY SKY/WX TMP DP RH WIND PRES REMARKS THOMSON PTCLDY 70 70 100 CALM 30.11F AUGUSTA-BUSH PTCLDY 66 66 100 CALM 30.05S FOG AUGUSTA-DANIEL PTCLDY 74 68 81 E3 30.07S SWAINSBORO FAIR 72 70 94 NE3 30.06R FOG VIDALIA MOCLDY 72 72 100 CALM 30.04S FOG EASTMAN PTSUNNY 67 67 100 CALM 30.07S FOG HAZLEHURST FAIR 71 71 100 CALM 30.03R ALMA PTCLDY 71 70 96 NW5 30.02R FOG WAYCROSS PTCLDY 74 74 100 N3 30.00F FOG JESUP FAIR 73 73 100 NE3 30.01F BAXLEY FAIR 72 72 100 NE3 30.02S FOG BRUNSWICK CLOUDY 77 73 88 CALM 30.00S SAINT SIMONS CLOUDY 80 72 76 E6 29.98S $$ SCZ027-028-034-036>038-045-046-048>050-GAZ119-141-261000- ...LAKE AND SUPPLEMENTAL COASTAL OBSERVATIONS... STATION/POSITION TIME TEMP WIND PRES WAVE SWELL AIR SEA DIR/SP/G HT/PER HT/PER/DIR (UTC) (F) (DEG/KT/KT) (MB) (FT/S) (FT/S/D) WINYAH BAY 0830 79 90/ 8 1017.0S LAKE MURRAY 0830 75 100/ 6/ 8 1017.9F ACE BASIN NERRS 0845 75 CALM 1017.0S FORT PULASKI 0900 81 81 70/ 12/ 14 1016.6 SAPELO ISLAND 0900 75 30/ 2 1016.0 $$ ANZ835-935-AMZ111-154-330-350-352-354-370-450-454-472-261000- ...C-MAN AND BUOY OBSERVATIONS... STATION/POSITION TIME TEMP WIND PRES WAVE SWELL AIR SEA DIR/SP/G HT/PER HT/PER/DIR (UTC) (F) (DEG/KT/KT) (MB) (FT/S) (FT/S/D) BUOY 41004 0850 78 82 90/ 16/ 17 1016.0F 5/ 6 2/100/ 9 BUOY 41008 0850 81 82 80/ 12/ 14 1014.7F 3/10 2/120/10 FOLLY BEACH CMAN 0900 80 90/ 15/ 17 1017.0F CAPERS NEARSHORE 0908 80 81 100/ 16/ 21 1016.7F FRIPP NEARSHORE 0808 80 81 90/ 16/ 19 1016.2F STATION/POSITION TIME TEMP WIND PRES WAVE SWELL AIR SEA DIR/SP/G HT/PER HT/PER/DIR (UTC) (F) (DEG/KT/KT) (MB) (FT/S) (FT/S/D) 5E ST. MARYS GA 0901 82 N/A 4/ 5 2/110/11 FRYING PAN BUOY 0910 79 82 50/ 12/ 16 1017.4 BUOY 41025 0850 74 83 40/ 12/ 16 1018.8F 3/ 8 3/ 70/ 8 CAPE LOOKOUT NC 0900 71 10/ 10/ 13 1019.0F BUOY 41002 0850 80 84 60/ 8/ 10 1016.0F 4/ 8 3/ 40/ 8 BUOY 41010 NOT AVBL ST AUGUSTINE FL 0900 74 83 230/ 8/ 9 1015.2F $$

USA.gov is the U.S. government's official web portal to all federal, state and local government web resources and services.